Location: Newark
(35.6799°N, 139.7636°E)
Time: 07:34:45
(UTC+00:00)

Explorer 7 - Pass Details

Date: 13 December 2019
Orbit: 485 x 679 km, 50.3° (Epoch: 24 January)

Event Time Altitude Azimuth Distance (km) Brightness Sun altitude
Rises 03:42:01 0° 194° (SSW) 2,869 11.7 29.1°
Reaches altitude 10° 03:44:39 10° 179° (S) 2,001 11.1 28.9°
Maximum altitude 03:48:15 23° 128° (SE) 1,392 9.3 28.7°
Drops below altitude 10° 03:51:58 10° 77° (ENE) 2,082 9.5 28.4°
Sets 03:54:46 0° 63° (ENE) 3,017 10.2 28.2°
